This is the latest recevied weather packets stored in our database for station/object IZ2XCK-13. If no packets are shown the sender has not sent any weather packets the latest 10 day(s).
| Time | Temp. | Humidity | Pressure | Rain* | Wind** | Luminosity | Snow |
|---|---|---|---|---|---|---|---|
| 1777820745 | 23.33° C | 29% | 1018.3 hPa | - | - | - | - |
| 1777819544 | 23.89° C | 28% | 1018.3 hPa | - | - | - | - |
| 1777818344 | 24.44° C | 27% | 1018.4 hPa | - | - | - | - |
| 1777817144 | 25° C | 28% | 1018.6 hPa | - | - | - | - |
| 1777815943 | 25° C | 28% | 1018.4 hPa | - | - | - | - |
| 1777814743 | 23.89° C | 29% | 1018.6 hPa | - | - | - | - |
| 1777813543 | 23.33° C | 30% | 1018.7 hPa | - | - | - | - |
| 1777812342 | 23.89° C | 29% | 1018.9 hPa | - | - | - | - |
| 1777811142 | 22.78° C | 30% | 1018.9 hPa | - | - | - | - |
| 1777809942 | 22.78° C | 31% | 1018.9 hPa | - | - | - | - |
| 1777808742 | 23.33° C | 31% | 1019 hPa | - | - | - | - |
| 1777807541 | 22.78° C | 31% | 1019.3 hPa | - | - | - | - |
| 1777806341 | 22.22° C | 34% | 1019.6 hPa | - | - | - | - |
| 1777805141 | 21.67° C | 37% | 1019.8 hPa | - | - | - | - |
| 1777803940 | 20.56° C | 40% | 1019.9 hPa | - | - | - | - |
| 1777802740 | 19.44° C | 42% | 1020.1 hPa | - | - | - | - |
| 1777801540 | 18.89° C | 43% | 1020.2 hPa | - | - | - | - |
| 1777800340 | 18.33° C | 47% | 1020.5 hPa | - | - | - | - |
| 1777799139 | 18.33° C | 50% | 1020.6 hPa | - | - | - | - |
| 1777797939 | 17.22° C | 51% | 1020.7 hPa | - | - | - | - |
| 1777796739 | 17.22° C | 53% | 1020.7 hPa | - | - | - | - |
| 1777795538 | 16.67° C | 51% | 1020.7 hPa | - | - | - | - |
| 1777794338 | 16.11° C | 53% | 1020.8 hPa | - | - | - | - |
| 1777793138 | 15.56° C | 55% | 1020.8 hPa | - | - | - | - |
| 1777791937 | 15° C | 56% | 1021 hPa | - | - | - | - |
* Rain since midnight (hover to see other rain measurements)
** Current wind speed in m/s (hover to see current wind gust speed)